Time,TemperatureF,DewpointF,PressureIn,WindDirection,WindDirectionDegrees,WindSpeedMPH,WindSpeedGustMPH,Humidity,HourlyPrecipIn,Conditions,Clouds,dailyrainin,SoftwareType,DateUTC
2013-04-18 00:01:00,47.2,21.0,30.17,ESE,107,2.0,3.0,35,0.00,,---,0.00,VWS V14.01,2013-04-18 07:01:00,
2013-04-18 00:06:00,47.0,20.8,30.17,ESE,123,2.0,3.0,35,0.00,,---,0.00,VWS V14.01,2013-04-18 07:06:00,
2013-04-18 00:11:00,46.8,21.3,30.18,ESE,118,2.0,3.0,36,0.00,,---,0.00,VWS V14.01,2013-04-18 07:11:00,
2013-04-18 00:16:00,46.7,21.2,30.18,SE,134,2.0,3.0,36,0.00,,---,0.00,VWS V14.01,2013-04-18 07:16:00,
2013-04-18 00:22:00,46.6,21.1,30.18,ESE,120,0.0,3.0,36,0.00,,---,0.00,VWS V14.01,2013-04-18 07:22:00,
2013-04-18 00:27:00,46.5,21.0,30.18,ESE,120,0.0,3.0,36,0.00,,---,0.00,VWS V14.01,2013-04-18 07:27:00,
2013-04-18 00:32:00,46.2,21.4,30.18,SSE,166,1.0,3.0,37,0.00,,---,0.00,VWS V14.01,2013-04-18 07:32:00,
2013-04-18 00:37:00,45.7,21.6,30.18,SSE,164,2.0,3.0,38,0.00,,---,0.00,VWS V14.01,2013-04-18 07:37:00,
2013-04-18 00:42:00,45.5,22.0,30.18,SSE,155,2.0,3.0,39,0.00,,---,0.00,VWS V14.01,2013-04-18 07:42:00,
2013-04-18 00:47:00,45.2,22.3,30.18,SSE,152,0.0,3.0,40,0.00,,---,0.00,VWS V14.01,2013-04-18 07:47:00,
2013-04-18 00:52:00,44.9,22.6,30.18,SSE,155,0.0,3.0,41,0.00,,---,0.00,VWS V14.01,2013-04-18 07:52:00,
2013-04-18 00:57:00,44.7,22.5,30.18,SSE,155,0.0,3.0,41,0.00,,---,0.00,VWS V14.01,2013-04-18 07:57:00,
2013-04-18 01:02:00,44.7,22.5,30.19,SE,142,1.0,2.0,41,0.00,,---,0.00,VWS V14.01,2013-04-18 08:02:00,
2013-04-18 01:07:00,44.7,22.5,30.19,SE,138,1.0,2.0,41,0.00,,---,0.00,VWS V14.01,2013-04-18 08:07:00,
2013-04-18 01:12:00,44.3,22.7,30.19,SE,138,0.0,2.0,42,0.00,,---,0.00,VWS V14.01,2013-04-18 08:12:00,
2013-04-18 01:17:00,43.9,22.9,30.19,SSE,165,1.0,2.0,43,0.00,,---,0.00,VWS V14.01,2013-04-18 08:17:00,
2013-04-18 01:22:00,43.7,22.7,30.19,South,169,1.0,2.0,43,0.00,,---,0.00,VWS V14.01,2013-04-18 08:22:00,
2013-04-18 01:27:00,43.6,23.1,30.19,SSW,201,1.0,2.0,44,0.00,,---,0.00,VWS V14.01,2013-04-18 08:27:00,
2013-04-18 01:32:00,43.4,23.0,30.19,South,173,2.0,2.0,44,0.00,,---,0.00,VWS V14.01,2013-04-18 08:32:00,
2013-04-18 01:37:00,43.3,22.9,30.19,SSE,165,0.0,2.0,44,0.00,,---,0.00,VWS V14.01,2013-04-18 08:37:00,
2013-04-18 01:42:00,43.1,23.2,30.19,SSE,164,1.0,2.0,45,0.00,,---,0.00,VWS V14.01,2013-04-18 08:42:00,
2013-04-18 01:48:00,43.1,23.2,30.20,South,176,1.0,2.0,45,0.00,,---,0.00,VWS V14.01,2013-04-18 08:48:00,
2013-04-18 01:53:00,42.9,23.6,30.19,South,176,0.0,2.0,46,0.00,,---,0.00,VWS V14.01,2013-04-18 08:53:00,
2013-04-18 01:58:00,42.5,23.2,30.19,South,191,1.0,3.0,46,0.00,,---,0.00,VWS V14.01,2013-04-18 08:58:00,
2013-04-18 02:03:00,42.4,22.6,30.19,SSE,160,2.0,2.0,45,0.00,,---,0.00,VWS V14.01,2013-04-18 09:03:00,
2013-04-18 02:08:00,42.4,22.6,30.19,ESE,114,0.0,2.0,45,0.00,,---,0.00,VWS V14.01,2013-04-18 09:08:00,
2013-04-18 02:13:00,42.4,23.1,30.20,SSE,167,0.0,2.0,46,0.00,,---,0.00,VWS V14.01,2013-04-18 09:13:00,
2013-04-18 02:18:00,42.2,22.9,30.19,SE,131,0.0,2.0,46,0.00,,---,0.00,VWS V14.01,2013-04-18 09:18:00,
2013-04-18 02:23:00,42.0,23.2,30.19,SSE,159,2.0,2.0,47,0.00,,---,0.00,VWS V14.01,2013-04-18 09:23:00,
2013-04-18 02:28:00,41.9,23.2,30.19,South,174,0.0,2.0,47,0.00,,---,0.00,VWS V14.01,2013-04-18 09:28:00,
2013-04-18 02:33:00,41.5,23.3,30.19,SSW,200,2.0,2.0,48,0.00,,---,0.00,VWS V14.01,2013-04-18 09:33:00,
2013-04-18 02:38:00,41.2,23.5,30.19,SSW,195,1.0,2.0,49,0.00,,---,0.00,VWS V14.01,2013-04-18 09:38:00,
2013-04-18 02:43:00,41.2,23.5,30.20,SSW,195,1.0,2.0,49,0.00,,---,0.00,VWS V14.01,2013-04-18 09:43:00,
2013-04-18 02:48:00,41.1,23.4,30.19,SSW,197,1.0,2.0,49,0.00,,---,0.00,VWS V14.01,2013-04-18 09:48:00,
2013-04-18 02:53:00,40.9,23.2,30.19,South,190,2.0,2.0,49,0.00,,---,0.00,VWS V14.01,2013-04-18 09:53:00,
2013-04-18 02:58:00,40.6,23.0,30.19,SSW,193,2.0,2.0,49,0.00,,---,0.00,VWS V14.01,2013-04-18 09:58:00,
2013-04-18 03:03:00,40.4,22.8,30.19,SW,216,2.0,3.0,49,0.00,,---,0.00,VWS V14.01,2013-04-18 10:03:00,
2013-04-18 03:08:00,40.6,23.0,30.20,SSW,203,0.0,3.0,49,0.00,,---,0.00,VWS V14.01,2013-04-18 10:08:00,
2013-04-18 03:13:00,40.4,22.8,30.20,South,170,2.0,3.0,49,0.00,,---,0.00,VWS V14.01,2013-04-18 10:13:00,
2013-04-18 03:18:00,41.3,22.1,30.20,SSW,200,1.0,3.0,46,0.00,,---,0.00,VWS V14.01,2013-04-18 10:18:00,
2013-04-18 03:23:00,41.4,22.2,30.20,SW,231,2.0,3.0,46,0.00,,---,0.00,VWS V14.01,2013-04-18 10:23:00,
2013-04-18 03:28:00,41.5,22.3,30.20,SSE,153,0.0,3.0,46,0.00,,---,0.00,VWS V14.01,2013-04-18 10:28:00,
2013-04-18 03:33:00,41.0,21.8,30.21,SSE,153,0.0,3.0,46,0.00,,---,0.00,VWS V14.01,2013-04-18 10:33:00,
2013-04-18 03:38:00,40.8,21.6,30.21,SSE,152,0.0,3.0,46,0.00,,---,0.00,VWS V14.01,2013-04-18 10:38:00,
2013-04-18 03:43:00,40.8,21.6,30.21,SE,135,1.0,3.0,46,0.00,,---,0.00,VWS V14.01,2013-04-18 10:43:00,
2013-04-18 03:48:00,40.8,22.1,30.21,SE,134,1.0,3.0,47,0.00,,---,0.00,VWS V14.01,2013-04-18 10:48:00,
2013-04-18 03:53:00,40.5,22.4,30.21,SE,135,0.0,3.0,48,0.00,,---,0.00,VWS V14.01,2013-04-18 10:53:00,
2013-04-18 03:58:00,40.0,22.9,30.21,SSE,153,1.0,3.0,50,0.00,,---,0.00,VWS V14.01,2013-04-18 10:58:00,
2013-04-18 04:03:00,39.8,22.7,30.21,SE,146,0.0,3.0,50,0.00,,---,0.00,VWS V14.01,2013-04-18 11:03:00,
2013-04-18 04:08:00,39.5,22.9,30.21,SSE,148,0.0,3.0,51,0.00,,---,0.00,VWS V14.01,2013-04-18 11:08:00,
2013-04-18 04:13:00,39.5,22.4,30.21,SSE,165,1.0,3.0,50,0.00,,---,0.00,VWS V14.01,2013-04-18 11:13:00,
2013-04-18 04:18:00,39.2,22.6,30.22,South,184,1.0,3.0,51,0.00,,---,0.00,VWS V14.01,2013-04-18 11:18:00,
2013-04-18 04:23:00,39.0,22.9,30.22,South,191,2.0,3.0,52,0.00,,---,0.00,VWS V14.01,2013-04-18 11:23:00,
2013-04-18 04:29:00,38.7,22.6,30.22,SSE,167,0.0,3.0,52,0.00,,---,0.00,VWS V14.01,2013-04-18 11:29:00,
2013-04-18 04:34:00,38.6,23.0,30.22,SE,131,2.0,3.0,53,0.00,,---,0.00,VWS V14.01,2013-04-18 11:34:00,
2013-04-18 04:39:00,39.0,21.5,30.22,NE,49,2.0,3.0,49,0.00,,---,0.00,VWS V14.01,2013-04-18 11:39:00,
2013-04-18 04:44:00,38.9,21.9,30.22,SSE,166,1.0,3.0,50,0.00,,---,0.00,VWS V14.01,2013-04-18 11:44:00,
2013-04-18 04:49:00,38.7,21.7,30.22,SSE,163,0.0,3.0,50,0.00,,---,0.00,VWS V14.01,2013-04-18 11:49:00,
2013-04-18 04:54:00,39.1,21.1,30.22,SSE,162,0.0,3.0,48,0.00,,---,0.00,VWS V14.01,2013-04-18 11:54:00,
2013-04-18 04:59:00,38.7,21.7,30.23,SSE,162,1.0,3.0,50,0.00,,---,0.00,VWS V14.01,2013-04-18 11:59:00,
2013-04-18 05:04:00,38.8,20.3,30.23,SE,133,1.0,2.0,47,0.00,,---,0.00,VWS V14.01,2013-04-18 12:04:00,
2013-04-18 05:09:00,39.1,19.6,30.23,SSE,167,0.0,2.0,45,0.00,,---,0.00,VWS V14.01,2013-04-18 12:09:00,
2013-04-18 05:14:00,39.3,19.8,30.23,SSE,166,0.0,2.0,45,0.00,,---,0.00,VWS V14.01,2013-04-18 12:14:00,
2013-04-18 05:19:00,38.9,20.9,30.23,SSE,166,0.0,2.0,48,0.00,,---,0.00,VWS V14.01,2013-04-18 12:19:00,
2013-04-18 05:24:00,38.0,21.0,30.23,South,176,1.0,2.0,50,0.00,,---,0.00,VWS V14.01,2013-04-18 12:24:00,
2013-04-18 05:29:00,38.1,19.7,30.23,SW,225,0.0,2.0,47,0.00,,---,0.00,VWS V14.01,2013-04-18 12:29:00,
2013-04-18 05:34:00,38.2,19.3,30.23,SW,224,1.0,2.0,46,0.00,,---,0.00,VWS V14.01,2013-04-18 12:34:00,
2013-04-18 05:39:00,38.0,20.1,30.23,SSW,196,1.0,2.0,48,0.00,,---,0.00,VWS V14.01,2013-04-18 12:39:00,
2013-04-18 05:44:00,37.9,19.0,30.23,SSW,198,1.0,2.0,46,0.00,,---,0.00,VWS V14.01,2013-04-18 12:44:00,
2013-04-18 05:49:00,38.2,17.7,30.23,SSW,198,0.0,2.0,43,0.00,,---,0.00,VWS V14.01,2013-04-18 12:49:00,
2013-04-18 05:54:00,38.3,19.4,30.24,SSW,198,0.0,2.0,46,0.00,,---,0.00,VWS V14.01,2013-04-18 12:54:00,
2013-04-18 05:59:00,37.4,20.0,30.24,SSW,198,0.0,0.0,49,0.00,,---,0.00,VWS V14.01,2013-04-18 12:59:00,
2013-04-18 06:04:00,37.6,18.2,30.25,NW,307,0.0,3.0,45,0.00,,---,0.00,VWS V14.01,2013-04-18 13:04:00,
2013-04-18 06:09:00,39.0,19.5,30.24,WNW,302,2.0,4.0,45,0.00,,---,0.00,VWS V14.01,2013-04-18 13:09:00,
2013-04-18 06:14:00,39.5,19.4,30.25,WNW,297,3.0,6.0,44,0.00,,---,0.00,VWS V14.01,2013-04-18 13:14:00,
2013-04-18 06:19:00,39.5,19.9,30.25,WSW,252,1.0,6.0,45,0.00,,---,0.00,VWS V14.01,2013-04-18 13:19:00,
2013-04-18 06:24:00,39.0,20.0,30.26,South,191,1.0,6.0,46,0.00,,---,0.00,VWS V14.01,2013-04-18 13:24:00,
2013-04-18 06:29:00,38.6,19.6,30.26,SSE,166,1.0,6.0,46,0.00,,---,0.00,VWS V14.01,2013-04-18 13:29:00,
2013-04-18 06:34:00,38.8,20.3,30.26,South,181,0.0,6.0,47,0.00,,---,0.00,VWS V14.01,2013-04-18 13:34:00,
2013-04-18 06:39:00,39.3,19.2,30.27,SSW,212,1.0,6.0,44,0.00,,---,0.00,VWS V14.01,2013-04-18 13:39:00,
2013-04-18 06:44:00,40.0,19.3,30.27,West,280,2.0,6.0,43,0.00,,---,0.00,VWS V14.01,2013-04-18 13:44:00,
2013-04-18 06:49:00,40.8,19.5,30.27,West,271,1.0,6.0,42,0.00,,---,0.00,VWS V14.01,2013-04-18 13:49:00,
2013-04-18 06:54:00,41.3,20.5,30.27,West,276,0.0,6.0,43,0.00,,---,0.00,VWS V14.01,2013-04-18 13:54:00,
2013-04-18 06:59:00,42.2,20.2,30.27,West,273,0.0,0.0,41,0.00,,---,0.00,VWS V14.01,2013-04-18 13:59:00,
2013-04-18 07:05:00,43.0,20.9,30.27,SW,216,0.0,0.0,41,0.00,,---,0.00,VWS V14.01,2013-04-18 14:05:00,
2013-04-18 07:10:00,43.8,20.5,30.27,SW,217,0.0,0.0,39,0.00,,---,0.00,VWS V14.01,2013-04-18 14:10:00,
2013-04-18 07:15:00,45.3,22.4,30.27,SW,217,0.0,0.0,40,0.00,,---,0.00,VWS V14.01,2013-04-18 14:15:00,
2013-04-18 07:20:00,46.3,21.5,30.28,SSW,209,0.0,1.0,37,0.00,,---,0.00,VWS V14.01,2013-04-18 14:20:00,
2013-04-18 07:25:00,45.7,20.9,30.28,SSW,208,0.0,1.0,37,0.00,,---,0.00,VWS V14.01,2013-04-18 14:25:00,
2013-04-18 07:30:00,45.8,20.4,30.28,SW,224,0.0,1.0,36,0.00,,---,0.00,VWS V14.01,2013-04-18 14:30:00,
2013-04-18 07:35:00,45.5,20.1,30.28,NW,307,1.0,1.0,36,0.00,,---,0.00,VWS V14.01,2013-04-18 14:35:00,
2013-04-18 07:40:00,45.3,19.3,30.28,NW,304,1.0,2.0,35,0.00,,---,0.00,VWS V14.01,2013-04-18 14:40:00,
2013-04-18 07:45:00,45.5,19.5,30.28,WNW,290,2.0,2.0,35,0.00,,---,0.00,VWS V14.01,2013-04-18 14:45:00,
2013-04-18 07:50:00,45.8,19.0,30.28,WNW,288,2.0,3.0,34,0.00,,---,0.00,VWS V14.01,2013-04-18 14:50:00,
2013-04-18 07:55:00,45.9,17.7,30.28,NW,319,3.0,4.0,32,0.00,,---,0.00,VWS V14.01,2013-04-18 14:55:00,
2013-04-18 08:00:00,46.0,17.1,30.28,WNW,300,3.0,3.0,31,0.00,,---,0.00,VWS V14.01,2013-04-18 15:00:00,
2013-04-18 08:05:00,46.3,18.1,30.28,WNW,284,2.0,4.0,32,0.00,,---,0.00,VWS V14.01,2013-04-18 15:05:00,
2013-04-18 08:10:00,46.6,17.6,30.28,WNW,296,1.0,4.0,31,0.00,,---,0.00,VWS V14.01,2013-04-18 15:10:00,
2013-04-18 08:15:00,47.1,17.3,30.28,WNW,297,2.0,4.0,30,0.00,,---,0.00,VWS V14.01,2013-04-18 15:15:00,
2013-04-18 08:20:00,47.5,17.6,30.28,North,358,1.0,4.0,30,0.00,,---,0.00,VWS V14.01,2013-04-18 15:20:00,
2013-04-18 08:25:00,47.7,16.2,30.28,WNW,301,1.0,4.0,28,0.00,,---,0.00,VWS V14.01,2013-04-18 15:25:00,
2013-04-18 08:30:00,47.9,16.4,30.28,NW,309,1.0,4.0,28,0.00,,---,0.00,VWS V14.01,2013-04-18 15:30:00,
2013-04-18 08:35:00,48.5,16.1,30.29,NNE,23,4.0,4.0,27,0.00,,---,0.00,VWS V14.01,2013-04-18 15:35:00,
2013-04-18 08:40:00,48.7,15.4,30.29,NE,44,2.0,5.0,26,0.00,,---,0.00,VWS V14.01,2013-04-18 15:40:00,
2013-04-18 08:45:00,49.1,16.6,30.28,NW,314,1.0,5.0,27,0.00,,---,0.00,VWS V14.01,2013-04-18 15:45:00,
2013-04-18 08:50:00,49.4,16.8,30.28,North,356,3.0,5.0,27,0.00,,---,0.00,VWS V14.01,2013-04-18 15:50:00,
2013-04-18 08:55:00,50.0,17.4,30.28,East,83,1.0,5.0,27,0.00,,---,0.00,VWS V14.01,2013-04-18 15:55:00,
2013-04-18 09:00:00,50.6,17.0,30.28,NE,35,0.0,3.0,26,0.00,,---,0.00,VWS V14.01,2013-04-18 16:00:00,
2013-04-18 09:05:00,50.9,18.1,30.28,NE,44,6.0,7.0,27,0.00,,---,0.00,VWS V14.01,2013-04-18 16:05:00,
2013-04-18 09:10:00,51.5,18.6,30.28,NE,42,4.0,7.0,27,0.00,,---,0.00,VWS V14.01,2013-04-18 16:10:00,
2013-04-18 09:15:00,52.5,19.5,30.28,NE,42,1.0,7.0,27,0.00,,---,0.00,VWS V14.01,2013-04-18 16:15:00,
2013-04-18 09:20:00,53.1,18.2,30.28,NNE,33,4.0,8.0,25,0.00,,---,0.00,VWS V14.01,2013-04-18 16:20:00,
2013-04-18 09:25:00,53.5,16.6,30.28,NE,53,8.0,12.0,23,0.00,,---,0.00,VWS V14.01,2013-04-18 16:25:00,
2013-04-18 09:30:00,54.1,15.1,30.28,ENE,61,4.0,14.0,21,0.00,,---,0.00,VWS V14.01,2013-04-18 16:30:00,
2013-04-18 09:36:00,54.3,16.3,30.28,ENE,71,5.0,14.0,22,0.00,,---,0.00,VWS V14.01,2013-04-18 16:36:00,
2013-04-18 09:41:00,54.5,15.4,30.28,ENE,57,8.0,14.0,21,0.00,,---,0.00,VWS V14.01,2013-04-18 16:41:00,
2013-04-18 09:46:00,54.9,15.7,30.28,NE,56,9.0,14.0,21,0.00,,---,0.00,VWS V14.01,2013-04-18 16:46:00,
2013-04-18 09:51:00,55.5,15.1,30.28,ENE,73,4.0,14.0,20,0.00,,---,0.00,VWS V14.01,2013-04-18 16:51:00,
2013-04-18 09:56:00,55.9,14.3,30.28,NE,51,13.0,14.0,19,0.00,,---,0.00,VWS V14.01,2013-04-18 16:56:00,
2013-04-18 10:01:00,55.9,14.3,30.27,NE,40,9.0,16.0,19,0.00,,---,0.00,VWS V14.01,2013-04-18 17:01:00,
2013-04-18 10:06:00,56.3,14.6,30.27,ENE,68,9.0,19.0,19,0.00,,---,0.00,VWS V14.01,2013-04-18 17:06:00,
2013-04-18 10:11:00,56.5,14.8,30.27,NNE,26,8.0,19.0,19,0.00,,---,0.00,VWS V14.01,2013-04-18 17:11:00,
2013-04-18 10:17:00,57.1,14.0,30.27,ENE,68,9.0,19.0,18,0.00,,---,0.00,VWS V14.01,2013-04-18 17:17:00,
2013-04-18 10:22:00,57.3,14.2,30.27,NE,53,15.0,19.0,18,0.00,,---,0.00,VWS V14.01,2013-04-18 17:22:00,
2013-04-18 10:27:00,57.2,12.8,30.28,NE,41,12.0,20.0,17,0.00,,---,0.00,VWS V14.01,2013-04-18 17:27:00,
2013-04-18 10:32:00,57.4,13.0,30.27,NE,45,9.0,20.0,17,0.00,,---,0.00,VWS V14.01,2013-04-18 17:32:00,
2013-04-18 10:37:00,58.6,13.9,30.27,NNE,30,11.0,20.0,17,0.00,,---,0.00,VWS V14.01,2013-04-18 17:37:00,
2013-04-18 10:42:00,58.6,12.6,30.27,NE,37,14.0,20.0,16,0.00,,---,0.00,VWS V14.01,2013-04-18 17:42:00,
2013-04-18 10:47:00,58.4,10.9,30.27,NNE,33,11.0,20.0,15,0.00,,---,0.00,VWS V14.01,2013-04-18 17:47:00,
2013-04-18 10:52:00,58.7,12.6,30.27,NE,40,13.0,20.0,16,0.00,,---,0.00,VWS V14.01,2013-04-18 17:52:00,
2013-04-18 10:57:00,59.0,12.9,30.27,East,91,11.0,20.0,16,0.00,,---,0.00,VWS V14.01,2013-04-18 17:57:00,
2013-04-18 11:02:00,59.3,11.7,30.27,NE,46,12.0,17.0,15,0.00,,---,0.00,VWS V14.01,2013-04-18 18:02:00,
2013-04-18 11:07:00,59.2,11.6,30.27,NE,54,10.0,17.0,15,0.00,,---,0.00,VWS V14.01,2013-04-18 18:07:00,
2013-04-18 11:12:00,59.5,11.8,30.27,ENE,75,19.0,23.0,15,0.00,,---,0.00,VWS V14.01,2013-04-18 18:12:00,
2013-04-18 11:17:00,59.3,11.7,30.27,East,88,12.0,23.0,15,0.00,,---,0.00,VWS V14.01,2013-04-18 18:17:00,
2013-04-18 11:22:00,60.1,12.3,30.27,ENE,68,3.0,23.0,15,0.00,,---,0.00,VWS V14.01,2013-04-18 18:22:00,
2013-04-18 11:28:00,60.5,11.1,30.26,NE,45,16.0,23.0,14,0.00,,---,0.00,VWS V14.01,2013-04-18 18:28:00,
2013-04-18 11:33:00,60.1,12.3,30.27,ENE,76,17.0,23.0,15,0.00,,---,0.00,VWS V14.01,2013-04-18 18:33:00,
2013-04-18 11:38:00,60.3,10.9,30.26,East,84,12.0,23.0,14,0.00,,---,0.00,VWS V14.01,2013-04-18 18:38:00,
2013-04-18 11:43:00,60.2,10.9,30.26,NE,50,7.0,23.0,14,0.00,,---,0.00,VWS V14.01,2013-04-18 18:43:00,
2013-04-18 11:48:00,60.3,10.9,30.26,NE,49,13.0,23.0,14,0.00,,---,0.00,VWS V14.01,2013-04-18 18:48:00,
2013-04-18 11:53:00,60.2,9.2,30.26,NNE,16,12.0,23.0,13,0.00,,---,0.00,VWS V14.01,2013-04-18 18:53:00,
2013-04-18 11:58:00,60.1,10.8,30.26,NE,53,13.0,23.0,14,0.00,,---,0.00,VWS V14.01,2013-04-18 18:58:00,
2013-04-18 12:03:00,60.2,10.9,30.25,NE,37,7.0,18.0,14,0.00,,---,0.00,VWS V14.01,2013-04-18 19:03:00,
2013-04-18 12:08:00,60.5,11.1,30.25,NE,51,6.0,18.0,14,0.00,,---,0.00,VWS V14.01,2013-04-18 19:08:00,
2013-04-18 12:13:00,60.9,11.4,30.25,NE,49,14.0,20.0,14,0.00,,---,0.00,VWS V14.01,2013-04-18 19:13:00,
2013-04-18 12:18:00,60.4,11.0,30.25,ENE,58,9.0,20.0,14,0.00,,---,0.00,VWS V14.01,2013-04-18 19:18:00,
2013-04-18 12:23:00,60.8,9.7,30.25,ENE,58,14.0,20.0,13,0.00,,---,0.00,VWS V14.01,2013-04-18 19:23:00,
2013-04-18 12:28:00,60.9,11.4,30.25,NE,44,8.0,20.0,14,0.00,,---,0.00,VWS V14.01,2013-04-18 19:28:00,
2013-04-18 12:33:00,61.1,9.9,30.24,ENE,70,10.0,20.0,13,0.00,,---,0.00,VWS V14.01,2013-04-18 19:33:00,
2013-04-18 12:38:00,61.7,10.4,30.24,ENE,78,10.0,20.0,13,0.00,,---,0.00,VWS V14.01,2013-04-18 19:38:00,
2013-04-18 12:43:00,61.2,10.0,30.24,NE,50,7.0,20.0,13,0.00,,---,0.00,VWS V14.01,2013-04-18 19:43:00,
2013-04-18 12:48:00,62.2,12.4,30.24,NE,35,4.0,20.0,14,0.00,,---,0.00,VWS V14.01,2013-04-18 19:48:00,
2013-04-18 12:53:00,61.9,10.5,30.24,NE,53,11.0,20.0,13,0.00,,---,0.00,VWS V14.01,2013-04-18 19:53:00,
2013-04-18 12:58:00,62.4,9.1,30.24,NE,44,11.0,23.0,12,0.00,,---,0.00,VWS V14.01,2013-04-18 19:58:00,
2013-04-18 13:03:00,61.9,10.5,30.23,NNE,30,6.0,13.0,13,0.00,,---,0.00,VWS V14.01,2013-04-18 20:03:00,
2013-04-18 13:08:00,62.7,11.2,30.24,ENE,69,6.0,15.0,13,0.00,,---,0.00,VWS V14.01,2013-04-18 20:08:00,
2013-04-18 13:14:00,62.4,10.9,30.23,East,81,10.0,18.0,13,0.00,,---,0.00,VWS V14.01,2013-04-18 20:14:00,
2013-04-18 13:19:00,63.0,9.6,30.23,NE,42,9.0,18.0,12,0.00,,---,0.00,VWS V14.01,2013-04-18 20:19:00,
2013-04-18 13:24:00,62.3,9.1,30.23,ENE,65,6.0,18.0,12,0.00,,---,0.00,VWS V14.01,2013-04-18 20:24:00,
2013-04-18 13:29:00,63.0,9.6,30.23,NNE,33,16.0,18.0,12,0.00,,---,0.00,VWS V14.01,2013-04-18 20:29:00,
2013-04-18 13:34:00,63.2,9.8,30.23,NE,52,9.0,18.0,12,0.00,,---,0.00,VWS V14.01,2013-04-18 20:34:00,
2013-04-18 13:39:00,63.3,9.9,30.23,NE,47,13.0,18.0,12,0.00,,---,0.00,VWS V14.01,2013-04-18 20:39:00,
2013-04-18 13:44:00,63.2,9.8,30.23,NE,50,19.0,19.0,12,0.00,,---,0.00,VWS V14.01,2013-04-18 20:44:00,
2013-04-18 13:49:00,63.6,10.1,30.23,NE,40,3.0,19.0,12,0.00,,---,0.00,VWS V14.01,2013-04-18 20:49:00,
2013-04-18 13:54:00,63.5,10.0,30.22,North,5,3.0,19.0,12,0.00,,---,0.00,VWS V14.01,2013-04-18 20:54:00,
2013-04-18 13:59:00,63.6,10.1,30.22,NNE,16,10.0,19.0,12,0.00,,---,0.00,VWS V14.01,2013-04-18 20:59:00,
2013-04-18 14:04:00,64.1,10.5,30.22,ENE,69,11.0,18.0,12,0.00,,---,0.00,VWS V14.01,2013-04-18 21:04:00,
2013-04-18 14:09:00,64.2,10.6,30.22,NE,53,5.0,18.0,12,0.00,,---,0.00,VWS V14.01,2013-04-18 21:09:00,
2013-04-18 14:14:00,64.5,10.8,30.22,East,84,4.0,18.0,12,0.00,,---,0.00,VWS V14.01,2013-04-18 21:14:00,
2013-04-18 14:19:00,64.3,10.6,30.21,ENE,58,7.0,18.0,12,0.00,,---,0.00,VWS V14.01,2013-04-18 21:19:00,
2013-04-18 14:24:00,64.4,10.7,30.21,NE,51,9.0,18.0,12,0.00,,---,0.00,VWS V14.01,2013-04-18 21:24:00,
2013-04-18 14:29:00,64.8,9.1,30.21,NE,53,13.0,18.0,11,0.00,,---,0.00,VWS V14.01,2013-04-18 21:29:00,
2013-04-18 14:34:00,64.5,8.9,30.21,NE,48,8.0,18.0,11,0.00,,---,0.00,VWS V14.01,2013-04-18 21:34:00,
2013-04-18 14:39:00,64.7,9.0,30.20,NNE,20,12.0,18.0,11,0.00,,---,0.00,VWS V14.01,2013-04-18 21:39:00,
2013-04-18 14:44:00,64.6,8.9,30.20,SSE,165,1.0,18.0,11,0.00,,---,0.00,VWS V14.01,2013-04-18 21:44:00,
2013-04-18 14:49:00,65.5,11.6,30.19,East,100,3.0,18.0,12,0.00,,---,0.00,VWS V14.01,2013-04-18 21:49:00,
2013-04-18 14:54:00,66.2,10.2,30.20,NE,54,12.0,18.0,11,0.00,,---,0.00,VWS V14.01,2013-04-18 21:54:00,
2013-04-18 14:59:00,65.9,7.8,30.20,NNE,23,7.0,7.0,10,0.00,,---,0.00,VWS V14.01,2013-04-18 21:59:00,
2013-04-18 15:04:00,66.1,8.0,30.19,East,79,6.0,14.0,10,0.00,,---,0.00,VWS V14.01,2013-04-18 22:04:00,
2013-04-18 15:09:00,66.4,10.3,30.19,North,360,4.0,14.0,11,0.00,,---,0.00,VWS V14.01,2013-04-18 22:09:00,
2013-04-18 15:14:00,66.6,8.4,30.19,NNE,13,4.0,14.0,10,0.00,,---,0.00,VWS V14.01,2013-04-18 22:14:00,
2013-04-18 15:19:00,66.2,8.1,30.19,NE,47,8.0,14.0,10,0.00,,---,0.00,VWS V14.01,2013-04-18 22:19:00,
2013-04-18 15:24:00,66.1,8.0,30.18,East,82,1.0,14.0,10,0.00,,---,0.00,VWS V14.01,2013-04-18 22:24:00,
2013-04-18 15:29:00,65.6,7.6,30.18,NE,44,9.0,15.0,10,0.00,,---,0.00,VWS V14.01,2013-04-18 22:29:00,
2013-04-18 15:34:00,66.1,8.0,30.18,NE,48,8.0,17.0,10,0.00,,---,0.00,VWS V14.01,2013-04-18 22:34:00,
2013-04-18 15:39:00,66.1,8.0,30.18,NE,37,11.0,17.0,10,0.00,,---,0.00,VWS V14.01,2013-04-18 22:39:00,
2013-04-18 15:44:00,66.0,5.6,30.18,North,359,2.0,17.0,9,0.00,,---,0.00,VWS V14.01,2013-04-18 22:44:00,
2013-04-18 15:49:00,65.9,5.5,30.18,NE,48,15.0,17.0,9,0.00,,---,0.00,VWS V14.01,2013-04-18 22:49:00,
2013-04-18 15:55:00,65.7,5.3,30.18,North,358,5.0,17.0,9,0.00,,---,0.00,VWS V14.01,2013-04-18 22:55:00,
2013-04-18 16:00:00,65.8,5.4,30.17,NNE,27,6.0,8.0,9,0.00,,---,0.00,VWS V14.01,2013-04-18 23:00:00,
2013-04-18 16:05:00,66.0,5.6,30.17,NNW,333,4.0,13.0,9,0.00,,---,0.00,VWS V14.01,2013-04-18 23:05:00,
2013-04-18 16:10:00,65.9,5.5,30.17,NE,50,7.0,13.0,9,0.00,,---,0.00,VWS V14.01,2013-04-18 23:10:00,
2013-04-18 16:15:00,66.3,8.1,30.17,NNE,22,3.0,13.0,10,0.00,,---,0.00,VWS V14.01,2013-04-18 23:15:00,
2013-04-18 16:20:00,66.6,6.0,30.17,ENE,75,7.0,15.0,9,0.00,,---,0.00,VWS V14.01,2013-04-18 23:20:00,
2013-04-18 16:25:00,66.6,6.0,30.17,North,9,5.0,15.0,9,0.00,,---,0.00,VWS V14.01,2013-04-18 23:25:00,
2013-04-18 16:30:00,66.4,5.9,30.17,NNE,23,6.0,15.0,9,0.00,,---,0.00,VWS V14.01,2013-04-18 23:30:00,
2013-04-18 16:35:00,66.9,6.3,30.17,NE,42,7.0,15.0,9,0.00,,---,0.00,VWS V14.01,2013-04-18 23:35:00,
2013-04-18 16:40:00,67.0,8.7,30.17,NNE,26,7.0,15.0,10,0.00,,---,0.00,VWS V14.01,2013-04-18 23:40:00,
2013-04-18 16:45:00,67.0,6.3,30.17,ENE,67,5.0,15.0,9,0.00,,---,0.00,VWS V14.01,2013-04-18 23:45:00,
2013-04-18 16:50:00,67.0,6.3,30.17,East,93,10.0,15.0,9,0.00,,---,0.00,VWS V14.01,2013-04-18 23:50:00,
2013-04-18 16:55:00,67.2,6.5,30.17,East,86,6.0,15.0,9,0.00,,---,0.00,VWS V14.01,2013-04-18 23:55:00,
2013-04-18 17:00:00,67.0,6.3,30.17,East,101,9.0,10.0,9,0.00,,---,0.00,VWS V14.01,2013-04-19 00:00:00,
2013-04-18 17:05:00,66.7,6.1,30.17,East,99,4.0,14.0,9,0.00,,---,0.00,VWS V14.01,2013-04-19 00:05:00,
2013-04-18 17:10:00,67.0,6.3,30.17,ESE,103,5.0,14.0,9,0.00,,---,0.00,VWS V14.01,2013-04-19 00:10:00,
2013-04-18 17:15:00,66.8,6.2,30.16,East,99,6.0,14.0,9,0.00,,---,0.00,VWS V14.01,2013-04-19 00:15:00,
2013-04-18 17:20:00,67.1,6.4,30.16,East,98,5.0,14.0,9,0.00,,---,0.00,VWS V14.01,2013-04-19 00:20:00,
2013-04-18 17:25:00,67.2,6.5,30.16,NNE,30,8.0,14.0,9,0.00,,---,0.00,VWS V14.01,2013-04-19 00:25:00,
2013-04-18 17:30:00,67.0,6.3,30.16,East,82,3.0,14.0,9,0.00,,---,0.00,VWS V14.01,2013-04-19 00:30:00,
2013-04-18 17:35:00,67.3,6.6,30.16,NE,37,7.0,14.0,9,0.00,,---,0.00,VWS V14.01,2013-04-19 00:35:00,
2013-04-18 17:40:00,67.5,6.7,30.16,NE,54,10.0,14.0,9,0.00,,---,0.00,VWS V14.01,2013-04-19 00:40:00,
2013-04-18 17:45:00,67.0,6.3,30.16,ENE,61,7.0,14.0,9,0.00,,---,0.00,VWS V14.01,2013-04-19 00:45:00,
2013-04-18 17:50:00,67.2,6.5,30.16,ENE,69,7.0,14.0,9,0.00,,---,0.00,VWS V14.01,2013-04-19 00:50:00,
2013-04-18 17:55:00,67.2,6.5,30.16,ESE,103,5.0,14.0,9,0.00,,---,0.00,VWS V14.01,2013-04-19 00:55:00,
2013-04-18 18:00:00,67.1,6.4,30.16,ENE,64,7.0,7.0,9,0.00,,---,0.00,VWS V14.01,2013-04-19 01:00:00,
2013-04-18 18:05:00,67.3,6.6,30.16,ESE,104,1.0,9.0,9,0.00,,---,0.00,VWS V14.01,2013-04-19 01:05:00,
2013-04-18 18:10:00,67.6,6.8,30.16,East,92,5.0,9.0,9,0.00,,---,0.00,VWS V14.01,2013-04-19 01:10:00,
2013-04-18 18:15:00,67.3,6.6,30.16,NE,45,4.0,12.0,9,0.00,,---,0.00,VWS V14.01,2013-04-19 01:15:00,
2013-04-18 18:20:00,67.1,6.4,30.16,ENE,62,5.0,12.0,9,0.00,,---,0.00,VWS V14.01,2013-04-19 01:20:00,
2013-04-18 18:25:00,67.3,6.6,30.16,NE,52,9.0,12.0,9,0.00,,---,0.00,VWS V14.01,2013-04-19 01:25:00,
2013-04-18 18:30:00,67.0,6.3,30.16,NE,48,8.0,13.0,9,0.00,,---,0.00,VWS V14.01,2013-04-19 01:30:00,
2013-04-18 18:35:00,66.9,6.3,30.16,NE,47,5.0,13.0,9,0.00,,---,0.00,VWS V14.01,2013-04-19 01:35:00,
2013-04-18 18:40:00,67.1,6.4,30.16,East,89,4.0,13.0,9,0.00,,---,0.00,VWS V14.01,2013-04-19 01:40:00,
2013-04-18 18:45:00,67.1,6.4,30.16,ENE,72,5.0,13.0,9,0.00,,---,0.00,VWS V14.01,2013-04-19 01:45:00,
2013-04-18 18:50:00,67.0,6.3,30.16,East,96,3.0,13.0,9,0.00,,---,0.00,VWS V14.01,2013-04-19 01:50:00,
2013-04-18 18:55:00,66.8,6.2,30.16,ENE,70,4.0,13.0,9,0.00,,---,0.00,VWS V14.01,2013-04-19 01:55:00,
2013-04-18 19:00:00,66.8,6.2,30.16,ENE,57,4.0,4.0,9,0.00,,---,0.00,VWS V14.01,2013-04-19 02:00:00,
2013-04-18 19:05:00,66.5,6.0,30.16,East,88,4.0,7.0,9,0.00,,---,0.00,VWS V14.01,2013-04-19 02:05:00,
2013-04-18 19:10:00,66.3,8.1,30.16,East,82,5.0,7.0,10,0.00,,---,0.00,VWS V14.01,2013-04-19 02:10:00,
2013-04-18 19:15:00,66.0,5.6,30.16,East,79,2.0,7.0,9,0.00,,---,0.00,VWS V14.01,2013-04-19 02:15:00,
2013-04-18 19:20:00,65.6,7.6,30.16,East,91,2.0,7.0,10,0.00,,---,0.00,VWS V14.01,2013-04-19 02:20:00,
2013-04-18 19:25:00,65.1,7.2,30.16,ENE,70,3.0,7.0,10,0.00,,---,0.00,VWS V14.01,2013-04-19 02:25:00,
2013-04-18 19:30:00,64.7,6.9,30.16,East,91,2.0,7.0,10,0.00,,---,0.00,VWS V14.01,2013-04-19 02:30:00,
2013-04-18 19:35:00,64.3,8.7,30.16,East,82,1.0,7.0,11,0.00,,---,0.00,VWS V14.01,2013-04-19 02:35:00,
2013-04-18 19:40:00,64.1,8.5,30.16,East,89,1.0,7.0,11,0.00,,---,0.00,VWS V14.01,2013-04-19 02:40:00,
2013-04-18 19:45:00,63.8,8.3,30.16,East,85,2.0,7.0,11,0.00,,---,0.00,VWS V14.01,2013-04-19 02:45:00,
2013-04-18 19:50:00,63.5,8.1,30.16,East,96,2.0,7.0,11,0.00,,---,0.00,VWS V14.01,2013-04-19 02:50:00,
2013-04-18 19:55:00,63.3,7.9,30.16,East,93,1.0,7.0,11,0.00,,---,0.00,VWS V14.01,2013-04-19 02:55:00,
2013-04-18 20:00:00,62.9,9.5,30.16,East,94,1.0,1.0,12,0.00,,---,0.00,VWS V14.01,2013-04-19 03:00:00,
2013-04-18 20:05:00,62.6,9.3,30.16,East,94,1.0,1.0,12,0.00,,---,0.00,VWS V14.01,2013-04-19 03:05:00,
2013-04-18 20:10:00,62.4,9.1,30.16,East,101,1.0,2.0,12,0.00,,---,0.00,VWS V14.01,2013-04-19 03:10:00,
2013-04-18 20:15:00,62.2,9.0,30.16,East,101,1.0,2.0,12,0.00,,---,0.00,VWS V14.01,2013-04-19 03:15:00,
2013-04-18 20:20:00,61.8,10.5,30.16,East,92,2.0,2.0,13,0.00,,---,0.00,VWS V14.01,2013-04-19 03:20:00,
2013-04-18 20:25:00,61.4,10.1,30.16,East,98,1.0,2.0,13,0.00,,---,0.00,VWS V14.01,2013-04-19 03:25:00,
2013-04-18 20:30:00,61.3,10.1,30.17,East,101,1.0,2.0,13,0.00,,---,0.00,VWS V14.01,2013-04-19 03:30:00,
2013-04-18 20:35:00,61.0,9.8,30.17,ESE,104,1.0,2.0,13,0.00,,---,0.00,VWS V14.01,2013-04-19 03:35:00,
2013-04-18 20:40:00,60.6,12.7,30.17,ESE,115,0.0,2.0,15,0.00,,---,0.00,VWS V14.01,2013-04-19 03:40:00,
2013-04-18 20:45:00,59.5,13.3,30.17,SSE,165,1.0,2.0,16,0.00,,---,0.00,VWS V14.01,2013-04-19 03:45:00,
2013-04-18 20:50:00,58.9,12.8,30.17,South,169,1.0,2.0,16,0.00,,---,0.00,VWS V14.01,2013-04-19 03:50:00,
2013-04-18 20:55:00,58.2,13.6,30.17,South,191,1.0,2.0,17,0.00,,---,0.00,VWS V14.01,2013-04-19 03:55:00,
2013-04-18 21:00:00,57.6,13.1,30.17,South,172,2.0,2.0,17,0.00,,---,0.00,VWS V14.01,2013-04-19 04:00:00,
2013-04-18 21:01:00,57.6,13.1,30.18,South,172,1.0,2.0,17,0.00,,---,0.00,VWS V14.01,2013-04-19 04:01:00,
2013-04-18 21:03:00,57.6,13.1,30.18,South,178,1.0,2.0,17,0.00,,---,0.00,VWS V14.01,2013-04-19 04:03:00,
2013-04-18 21:04:00,57.5,13.1,30.18,South,177,1.0,2.0,17,0.00,,---,0.00,VWS V14.01,2013-04-19 04:04:00,
2013-04-18 21:05:00,57.5,13.1,30.18,South,178,1.0,2.0,17,0.00,,---,0.00,VWS V14.01,2013-04-19 04:05:00,
2013-04-18 21:06:00,57.4,14.3,30.18,South,178,1.0,2.0,18,0.00,,---,0.00,VWS V14.01,2013-04-19 04:06:00,
2013-04-18 21:11:00,57.1,14.0,30.18,South,177,1.0,2.0,18,0.00,,---,0.00,VWS V14.01,2013-04-19 04:11:00,
2013-04-18 21:16:00,57.2,14.1,30.18,South,177,1.0,2.0,18,0.00,,---,0.00,VWS V14.01,2013-04-19 04:16:00,
2013-04-18 21:21:00,56.9,16.3,30.18,South,178,0.0,2.0,20,0.00,,---,0.00,VWS V14.01,2013-04-19 04:21:00,
2013-04-18 21:26:00,56.2,16.8,30.18,South,177,0.0,2.0,21,0.00,,---,0.00,VWS V14.01,2013-04-19 04:26:00,
2013-04-18 21:31:00,55.2,16.0,30.18,South,177,0.0,2.0,21,0.00,,---,0.00,VWS V14.01,2013-04-19 04:31:00,
2013-04-18 21:36:00,55.3,17.1,30.18,SW,236,1.0,2.0,22,0.00,,---,0.00,VWS V14.01,2013-04-19 04:36:00,
2013-04-18 21:41:00,55.4,17.2,30.18,SW,236,0.0,2.0,22,0.00,,---,0.00,VWS V14.01,2013-04-19 04:41:00,
2013-04-18 21:46:00,54.7,17.6,30.18,SW,221,1.0,2.0,23,0.00,,---,0.00,VWS V14.01,2013-04-19 04:46:00,
2013-04-18 21:51:00,55.9,14.3,30.18,WNW,285,2.0,2.0,19,0.00,,---,0.00,VWS V14.01,2013-04-19 04:51:00,
2013-04-18 21:56:00,56.3,14.6,30.18,WNW,291,0.0,3.0,19,0.00,,---,0.00,VWS V14.01,2013-04-19 04:56:00,
2013-04-18 22:01:00,56.2,14.5,30.18,WNW,289,2.0,3.0,19,0.00,,---,0.00,VWS V14.01,2013-04-19 05:01:00,
2013-04-18 22:06:00,55.9,14.3,30.18,West,276,1.0,3.0,19,0.00,,---,0.00,VWS V14.01,2013-04-19 05:06:00,
2013-04-18 22:11:00,55.6,14.0,30.18,WNW,284,2.0,3.0,19,0.00,,---,0.00,VWS V14.01,2013-04-19 05:11:00,
2013-04-18 22:17:00,55.0,15.8,30.18,NNE,21,0.0,3.0,21,0.00,,---,0.00,VWS V14.01,2013-04-19 05:17:00,
2013-04-18 22:22:00,54.5,13.1,30.18,NNE,18,0.0,3.0,19,0.00,,---,0.00,VWS V14.01,2013-04-19 05:22:00,
2013-04-18 22:27:00,54.4,13.0,30.18,West,278,0.0,3.0,19,0.00,,---,0.00,VWS V14.01,2013-04-19 05:27:00,
2013-04-18 22:32:00,54.1,13.9,30.18,West,278,1.0,3.0,20,0.00,,---,0.00,VWS V14.01,2013-04-19 05:32:00,
2013-04-18 22:37:00,54.0,12.7,30.18,West,278,1.0,3.0,19,0.00,,---,0.00,VWS V14.01,2013-04-19 05:37:00,
2013-04-18 22:42:00,54.2,14.0,30.18,SW,231,1.0,3.0,20,0.00,,---,0.00,VWS V14.01,2013-04-19 05:42:00,
2013-04-18 22:47:00,53.8,14.8,30.18,SW,224,2.0,3.0,21,0.00,,---,0.00,VWS V14.01,2013-04-19 05:47:00,
2013-04-18 22:52:00,53.5,16.6,30.18,WSW,243,1.0,3.0,23,0.00,,---,0.00,VWS V14.01,2013-04-19 05:52:00,
2013-04-18 22:57:00,53.1,17.3,30.18,West,269,1.0,3.0,24,0.00,,---,0.00,VWS V14.01,2013-04-19 05:57:00,
2013-04-18 23:02:00,53.4,16.5,30.19,West,278,2.0,2.0,23,0.00,,---,0.00,VWS V14.01,2013-04-19 06:02:00,
2013-04-18 23:07:00,53.3,17.5,30.18,WSW,257,1.0,2.0,24,0.00,,---,0.00,VWS V14.01,2013-04-19 06:07:00,
2013-04-18 23:12:00,53.0,17.2,30.18,West,276,1.0,2.0,24,0.00,,---,0.00,VWS V14.01,2013-04-19 06:12:00,
2013-04-18 23:17:00,53.1,17.3,30.18,WSW,253,1.0,2.0,24,0.00,,---,0.00,VWS V14.01,2013-04-19 06:17:00,
2013-04-18 23:22:00,52.6,17.8,30.18,WSW,254,3.0,3.0,25,0.00,,---,0.00,VWS V14.01,2013-04-19 06:22:00,
2013-04-18 23:27:00,52.6,17.8,30.19,SW,233,2.0,3.0,25,0.00,,---,0.00,VWS V14.01,2013-04-19 06:27:00,
2013-04-18 23:32:00,52.5,17.7,30.19,West,263,3.0,3.0,25,0.00,,---,0.00,VWS V14.01,2013-04-19 06:32:00,
2013-04-18 23:37:00,52.4,18.5,30.19,West,268,2.0,3.0,26,0.00,,---,0.00,VWS V14.01,2013-04-19 06:37:00,
2013-04-18 23:42:00,52.4,18.5,30.19,West,261,1.0,4.0,26,0.00,,---,0.00,VWS V14.01,2013-04-19 06:42:00,
2013-04-18 23:47:00,52.5,18.6,30.19,SW,225,3.0,4.0,26,0.00,,---,0.00,VWS V14.01,2013-04-19 06:47:00,
2013-04-18 23:52:00,52.8,18.0,30.19,SW,232,1.0,4.0,25,0.00,,---,0.00,VWS V14.01,2013-04-19 06:52:00,
2013-04-18 23:57:00,53.2,18.3,30.18,SW,231,1.0,4.0,25,0.00,,---,0.00,VWS V14.01,2013-04-19 06:57:00,